[[{"header":{"parameterUnit":"m.s-1","parameterCategory":1,"la1":30.2991,"la2":30.254,"lo1":-89.0895,"lo2":-89.0444,"dy":0.0017,"dx":0.0017,"nx":28,"ny":28,"refTime":"2024-07-25T09:00:00:Z","depth":0,"parameterNumber":2,"parameterNumberName":"U-component_of_WINDS"},"data":[0,0,0,0,0,0,0,0,0,0,0,0,0,0,0,0,0,0,0,0,0,0,0,0,0,0,0,0,0,0,0,0,0,0,0,0,0,0,0,0,0,0,0,0,0,0,0,0,0,0,0,0,0,0,0,0,0,0,-1.9876,-1.9877,0,-1.9944,-1.9944,-1.9945,-1.9856,-1.9852,-1.9849,-1.9846,-1.9922,-1.9927,-1.9932,0,0,0,0,0,0,0,0,0,0,0,0,0,-1.9675,-1.968,-1.9876,-1.9877,-1.9878,-1.9943,-1.9944,-1.9945,-1.9856,-1.9852,-1.9848,-1.9845,-1.992,-1.9926,-1.9932,0,0,0,0,0,0,0,0,0,0,0,0,0,-1.9755,-1.9681,-1.9876,-1.9841,-1.9838,-1.9943,-1.9944,-1.9946,-1.9857,-1.9852,-1.9847,-1.9843,-1.9918,-1.9925,-1.9933,-2.0077,0,0,-1.9956,-1.9959,0,0,0,0,0,0,0,0,-1.9751,-1.9762,-1.9845,-1.9843,-1.9841,-1.9886,-1.9901,-1.999,-1.9858,-1.985,-1.9846,-1.984,-1.9914,-1.9922,-1.9945,-2.0081,-2.0084,-1.9957,-1.9961,-1.9964,-1.9967,0,0,0,0,0,0,0,-1.9745,-1.9759,-1.9903,-1.9847,-1.9844,-1.9824,-1.983,-1.9918,-1.9909,-1.9851,-1.9844,-1.9853,-1.9912,-1.9938,-1.9946,-2.0085,-1.9956,-1.9963,-1.9968,-1.9971,-2.0343,-2.0348,0,0,0,0,0,0,-1.9743,-1.9755,-1.9901,-1.9905,-1.9783,-1.9831,-1.9838,-1.9877,-1.9908,-1.9908,-1.9857,-1.9849,-1.9928,-1.9938,-1.9949,-2.012,-1.9964,-1.9972,-1.9976,-2.0338,-2.0344,-2.035,0,0,0,0,0,0,-1.9739,-1.9757,-1.9898,-1.9828,-1.9845,-1.984,-1.9884,-1.9881,-1.9906,-1.9913,-1.9911,-1.9885,-1.9924,-1.9938,-2.0046,-2.0122,-1.9975,-1.9982,-2.0332,-2.034,-2.0347,-2.0464,0,0,0,0,0,0,-1.9734,-1.9756,-1.9809,-1.983,-1.9849,-1.9992,-1.9889,-1.9885,-1.9919,-1.9909,-1.9938,-1.9939,-1.9922,-2.0035,-2.0053,-2.0129,-1.9988,-2.0325,-2.0335,-2.0345,-2.0454,-2.0475,-2.0494,0,0,0,0,0,-1.9727,-1.9841,-1.9812,-1.983,-1.9915,-1.9997,-2.0007,-1.9984,-1.9925,-1.998,-1.9984,-1.9938,-2.011,-2.0047,-2.0066,-2.0146,-2.032,-2.0332,-2.0344,-2.0445,-2.0471,-2.0494,0,0,0,0,0,0,-1.9831,-1.9843,-1.9811,-1.9935,-1.9965,-1.9981,-2.0049,-2.0012,-2.0061,-2.005,-2.002,-2.0027,-2.0142,-2.0155,-2.0084,-2.0288,-2.0206,-2.0222,-2.0276,-2.0301,-2.0321,-2.0316,-1.9994,0,0,0,0,0,-1.9868,-1.9931,-1.9939,-2.0047,-2.0064,-2.0054,-2.0089,-2.0068,-2.0099,-2.0112,-2.0124,-2.0157,-2.0219,-2.026,-2.0317,-2.0455,-2.0461,-2.052,-2.054,-2.0556,-2.0572,-2.0647,-2.0673,-2.039,-2.039,-2.039,0,0,-1.9945,-1.996,-2.0002,-2.0068,-2.0089,-2.0158,-2.0066,-2.0142,-2.0193,-2.0124,-2.0226,-2.0236,-2.0272,-2.0395,-2.045,-2.0409,-2.0651,-2.0572,-2.0585,-2.0591,-2.0662,-2.0689,-2.0712,-2.0398,-2.0397,-2.0395,0,0,-2.0122,-2.0139,-2.0231,-2.0253,-2.0286,-2.0279,-2.0301,-2.0323,-2.0326,-2.0428,-2.0378,-2.0439,-2.0546,-2.0573,-2.0601,-2.0789,-2.0749,-2.0809,-2.0915,-2.0988,-2.101,-2.103,-2.1098,-2.1123,-2.0824,-2.0824,-2.0824,0,-2.0215,-2.0314,-2.0284,-2.0363,-2.0395,-2.0333,-2.0428,-2.0452,-2.0503,-2.0527,-2.048,-2.0612,-2.0632,-2.0762,-2.0808,-2.0832,-2.0858,-2.0806,-2.1009,-2.1029,-2.1047,-2.1111,-2.1137,-2.0831,-2.083,-2.083,-2.0829,0,-2.0427,-2.0497,-2.0568,-2.0616,-2.0656,-2.0743,-2.0727,-2.0772,-2.0747,-2.0746,-2.0851,-2.0872,-2.0933,-2.0962,-2.094,-2.1089,-2.1063,-2.1013,-2.093,-2.1081,-2.1142,-2.1166,-2.0841,-2.0839,-2.0837,-2.0835,0,0,-2.0672,-2.0702,-2.0728,-2.075,-2.0781,-2.0835,-2.092,-2.0978,-2.1017,-2.1054,-2.1126,-2.1217,-2.1171,-2.1204,-2.1184,-2.1248,-2.1397,-2.1191,-2.1191,-2.1229,-2.1565,-2.1603,-2.1632,-2.137,-2.1375,-2.1379,-2.1562,0,-2.0849,-2.0993,-2.0969,-2.111,-2.1175,-2.1118,-2.1192,-2.1221,-2.1222,-2.1279,-2.1281,-2.1347,-2.128,-2.13,-2.1361,-2.1366,-2.1465,-2.1352,-2.1439,-2.1443,-2.1433,-2.1663,-2.1704,-2.1876,-2.1586,-2.159,-2.1593,0,-2.1075,-2.1118,-2.1266,-2.1287,-2.1313,-2.138,-2.1431,-2.1486,-2.1518,-2.1514,-2.155,-2.1519,-2.1606,-2.1521,-2.1641,-2.1566,-2.16,-2.1608,-2.1614,-2.1623,-2.1527,-2.1679,-2.193,-2.1957,-2.1629,-2.1626,-2.1624,0,-2.124,-2.1335,-2.1436,-2.1456,-2.1483,-2.1532,-2.1546,-2.1572,-2.1609,-2.1655,-2.1678,-2.1734,-2.1765,-2.181,-2.1796,-2.1735,-2.1921,-2.1834,-2.1922,-2.1923,-2.1964,-2.1962,-2.2226,-2.1985,-2.1985,-2.1984,-2.1983,0,-2.1441,-2.1534,-2.151,-2.1572,-2.1675,-2.1647,-2.175,-2.1757,-2.1782,-2.1846,-2.1801,-2.1862,-2.1839,-2.19,-2.1889,-2.1992,-2.2006,-2.2007,-2.2004,-2.2012,-2.2012,-2.2035,-2.2023,-2.1991,-2.1989,-2.1988,-2.1987,0,-2.1643,-2.1631,-2.1737,-2.1753,-2.176,-2.1835,-2.185,-2.191,-2.1907,-2.1989,-2.2006,-2.2003,-2.2073,-2.2062,-2.214,-2.2133,-2.2261,-2.2243,-2.225,-2.2246,-2.2335,-2.2328,-2.2624,-2.2662,-2.2395,-2.2398,-2.24,0,-2.1772,-2.1842,-2.1866,-2.1904,-2.1921,-2.1985,-2.2021,-2.1996,-2.2037,-2.2078,-2.2134,-2.2198,-2.2249,-2.2363,-2.2369,-2.2429,-2.2412,-2.2511,-2.2421,-2.2427,-2.2415,-2.2411,-2.2419,-2.253,-2.2533,-2.2535,-2.2537,0,-2.2004,-2.1994,-2.2047,-2.2099,-2.2143,-2.2184,-2.2219,-2.2254,-2.2233,-2.2281,-2.235,-2.2389,-2.2468,-2.2534,-2.259,-2.2606,-2.257,-2.2566,-2.2589,-2.2599,-2.2601,-2.2603,-2.23,-2.2559,-2.2557,-2.2556,-2.2554,-2.2553,-2.2174,-2.2234,-2.226,-2.2321,-2.2345,-2.2379,-2.2436,-2.244,-2.2496,-2.2557,-2.254,-2.2619,-2.265,-2.2721,-2.2744,-2.2807,-2.2771,-2.2805,-2.2814,-2.2823,-2.2834,-2.259,-2.2817,-2.2817,-2.2816,-2.2816,-2.2815,0,-2.2405,-2.2418,-2.2474,-2.2525,-2.2574,-2.2532,-2.257,-2.2614,-2.2683,-2.2715,-2.2765,-2.2846,-2.2909,-2.292,-2.2981,-2.303,-2.3015,-2.3047,-2.3044,-2.3049,-2.2863,-2.2836,-2.3058,-2.3058,-2.3058,-2.3058,-2.3058,-2.3058,-2.253,-2.2629,-2.2623,-2.2734,-2.2747,-2.2822,-2.2848,-2.288,-2.2905,-2.2996,-2.3048,-2.3054,-2.3078,-2.314,-2.3198,-2.32,-2.3225,-2.3264,-2.326,-2.3086,-2.3062,-2.3039,-2.3014,-2.327,-2.327,-2.3441,-2.3442,-2.3444]},{"header":{"parameterUnit":"m.s-1","parameterCategory":1,"la1":30.2991,"la2":30.254,"lo1":-89.0895,"lo2":-89.0444,"dy":0.0017,"dx":0.0017,"nx":28,"ny":28,"refTime":"2024-07-25T09:00:00:Z","depth":0,"parameterNumber":3,"parameterNumberName":"V-component_of_WINDS"},"data":[0,0,0,0,0,0,0,0,0,0,0,0,0,0,0,0,0,0,0,0,0,0,0,0,0,0,0,0,0,0,0,0,0,0,0,0,0,0,0,0,0,0,0,0,0,0,0,0,0,0,0,0,0,0,0,0,0,0,-1.9522,-1.9522,0,-1.9507,-1.9507,-1.9506,-1.9462,-1.9461,-1.946,-1.9459,-1.9444,-1.9444,-1.9445,0,0,0,0,0,0,0,0,0,0,0,0,0,-1.9513,-1.9514,-1.9522,-1.9522,-1.9522,-1.9507,-1.9507,-1.9506,-1.9462,-1.9461,-1.946,-1.9459,-1.9444,-1.9444,-1.9445,0,0,0,0,0,0,0,0,0,0,0,0,0,-1.9509,-1.9514,-1.9522,-1.9498,-1.9496,-1.9507,-1.9507,-1.9506,-1.9462,-1.9461,-1.9459,-1.9458,-1.9443,-1.9444,-1.9445,-1.9479,0,0,-1.9447,-1.9448,0,0,0,0,0,0,0,0,-1.951,-1.951,-1.9502,-1.95,-1.9497,-1.9485,-1.9498,-1.9497,-1.9463,-1.9475,-1.9459,-1.9457,-1.9459,-1.9458,-1.9458,-1.9478,-1.9477,-1.9447,-1.9448,-1.9448,-1.9448,0,0,0,0,0,0,0,-1.951,-1.951,-1.9516,-1.9502,-1.9499,-1.9488,-1.9486,-1.9497,-1.9475,-1.9474,-1.9471,-1.9469,-1.9457,-1.9458,-1.9458,-1.9477,-1.9447,-1.9448,-1.9448,-1.9449,-1.9522,-1.9524,0,0,0,0,0,0,-1.9514,-1.9511,-1.9517,-1.9516,-1.95,-1.9489,-1.9487,-1.949,-1.9475,-1.9471,-1.9471,-1.9467,-1.9457,-1.9457,-1.9457,-1.9494,-1.9448,-1.9449,-1.9449,-1.9521,-1.9523,-1.9524,0,0,0,0,0,0,-1.9514,-1.9515,-1.9517,-1.9512,-1.9512,-1.9491,-1.9495,-1.9491,-1.9491,-1.9472,-1.9468,-1.9475,-1.9456,-1.9456,-1.9473,-1.9493,-1.9449,-1.945,-1.9519,-1.9522,-1.9524,-1.9571,0,0,0,0,0,0,-1.9514,-1.9515,-1.9528,-1.9513,-1.9512,-1.9534,-1.9496,-1.9491,-1.9493,-1.9488,-1.9476,-1.9472,-1.9455,-1.9472,-1.9474,-1.9494,-1.945,-1.9517,-1.952,-1.9523,-1.9567,-1.9574,-1.958,0,0,0,0,0,-1.9514,-1.9542,-1.9528,-1.9529,-1.9528,-1.9535,-1.9535,-1.9514,-1.9494,-1.9507,-1.9495,-1.9473,-1.9491,-1.9475,-1.9476,-1.9496,-1.9516,-1.9519,-1.9523,-1.9564,-1.9573,-1.958,0,0,0,0,0,0,-1.956,-1.9539,-1.9524,-1.9549,-1.9544,-1.9528,-1.9543,-1.9524,-1.9525,-1.952,-1.9495,-1.9492,-1.9513,-1.9506,-1.9488,-1.9528,-1.95,-1.9504,-1.9531,-1.9539,-1.9545,-1.9546,-1.9451,0,0,0,0,0,-1.9573,-1.9581,-1.9562,-1.9586,-1.9584,-1.9564,-1.9566,-1.9551,-1.9545,-1.9543,-1.9532,-1.9527,-1.9531,-1.9535,-1.9538,-1.9566,-1.9562,-1.9581,-1.9587,-1.9593,-1.9596,-1.961,-1.9617,-1.9536,-1.9536,-1.9536,0,0,-1.96,-1.959,-1.9596,-1.9595,-1.9589,-1.9597,-1.9562,-1.9573,-1.9579,-1.9544,-1.956,-1.9552,-1.9544,-1.9567,-1.9577,-1.9562,-1.9618,-1.9597,-1.9602,-1.9602,-1.9614,-1.9622,-1.9628,-1.9538,-1.9538,-1.9537,0,0,-1.9653,-1.9646,-1.9664,-1.9659,-1.9651,-1.9638,-1.9642,-1.9628,-1.9622,-1.9637,-1.961,-1.9617,-1.9626,-1.9622,-1.9621,-1.9672,-1.9651,-1.9674,-1.9707,-1.9721,-1.9727,-1.9733,-1.975,-1.9757,-1.9677,-1.9677,-1.9677,0,-1.9687,-1.9699,-1.9676,-1.9688,-1.9688,-1.9657,-1.9674,-1.9671,-1.9665,-1.9665,-1.9649,-1.9659,-1.9652,-1.9673,-1.9685,-1.9686,-1.9689,-1.9675,-1.9728,-1.9734,-1.9738,-1.9755,-1.9761,-1.968,-1.968,-1.9679,-1.9679,0,-1.9741,-1.9749,-1.9765,-1.9759,-1.9761,-1.9776,-1.9755,-1.976,-1.9744,-1.9732,-1.9748,-1.9738,-1.9738,-1.9742,-1.9728,-1.9761,-1.9752,-1.9733,-1.9704,-1.9749,-1.9764,-1.977,-1.9684,-1.9683,-1.9682,-1.9681,0,0,-1.9822,-1.9803,-1.9809,-1.9806,-1.9794,-1.98,-1.9814,-1.9814,-1.9818,-1.9815,-1.9825,-1.9833,-1.9815,-1.9813,-1.9798,-1.981,-1.985,-1.9788,-1.9788,-1.9799,-1.9885,-1.9899,-1.9907,-1.9836,-1.9838,-1.9838,-1.9885,0,-1.9872,-1.9893,-1.9873,-1.9898,-1.9905,-1.9876,-1.9887,-1.9882,-1.9871,-1.9876,-1.9864,-1.9869,-1.9845,-1.9844,-1.9855,-1.9843,-1.9866,-1.9839,-1.9845,-1.9846,-1.9847,-1.9914,-1.9929,-1.9974,-1.9891,-1.9892,-1.9893,0,-1.9932,-1.9931,-1.9957,-1.9943,-1.9945,-1.9956,-1.9954,-1.9959,-1.9952,-1.9943,-1.9942,-1.9922,-1.9934,-1.9907,-1.9923,-1.9905,-1.9907,-1.9901,-1.9902,-1.9901,-1.9871,-1.9914,-1.9988,-1.9994,-1.9902,-1.9901,-1.99,0,-1.9987,-1.9992,-2.0008,-2.0006,-1.9991,-1.9999,-1.9993,-1.9985,-1.9986,-1.9984,-1.9984,-1.9985,-1.9985,-1.9985,-1.9966,-1.9949,-1.9985,-1.9956,-1.9977,-1.9978,-1.9985,-1.9985,-2.0059,-1.9988,-1.9988,-1.9988,-1.9988,0,-2.0044,-2.0061,-2.0033,-2.0042,-2.006,-2.0037,-2.0056,-2.0047,-2.0039,-2.0046,-2.0021,-2.0029,-2.0004,-2.0009,-1.9994,-2.0009,-2.001,-2.0003,-1.9998,-2.0004,-2.0005,-2.0004,-2.0,-1.999,-1.9989,-1.9989,-1.9989,0,-2.0108,-2.009,-2.0105,-2.009,-2.0086,-2.01,-2.0086,-2.0094,-2.0082,-2.0092,-2.0093,-2.0073,-2.0078,-2.0059,-2.0061,-2.0051,-2.0073,-2.0064,-2.0075,-2.0072,-2.0094,-2.0092,-2.0169,-2.0178,-2.0102,-2.0103,-2.0104,0,-2.0145,-2.0157,-2.0142,-2.0145,-2.014,-2.0146,-2.0146,-2.0124,-2.0126,-2.0119,-2.0128,-2.013,-2.0131,-2.0139,-2.0125,-2.0126,-2.0116,-2.0143,-2.0116,-2.0121,-2.0115,-2.0114,-2.0115,-2.0149,-2.015,-2.015,-2.0151,0,-2.0211,-2.0202,-2.0204,-2.0203,-2.0205,-2.0203,-2.0199,-2.0203,-2.0179,-2.0183,-2.0187,-2.0187,-2.0188,-2.019,-2.0188,-2.0182,-2.0162,-2.016,-2.0164,-2.017,-2.0176,-2.0172,-2.009,-2.0158,-2.0157,-2.0157,-2.0156,-2.0156,-2.0262,-2.0271,-2.0262,-2.0265,-2.026,-2.0257,-2.0264,-2.0253,-2.0255,-2.0254,-2.0241,-2.0248,-2.024,-2.0235,-2.023,-2.0235,-2.0222,-2.0229,-2.0231,-2.0233,-2.0236,-2.0176,-2.0235,-2.0234,-2.0234,-2.0234,-2.0234,0,-2.0327,-2.0319,-2.0322,-2.0318,-2.032,-2.0302,-2.0297,-2.03,-2.0306,-2.03,-2.0301,-2.0305,-2.0307,-2.0294,-2.0294,-2.03,-2.0291,-2.0301,-2.03,-2.0299,-2.0248,-2.0244,-2.0308,-2.0308,-2.0308,-2.0308,-2.0308,-2.0308,-2.036,-2.0374,-2.0364,-2.0375,-2.0368,-2.0373,-2.0372,-2.0369,-2.0365,-2.037,-2.0372,-2.0363,-2.0354,-2.0353,-2.0354,-2.035,-2.0351,-2.0364,-2.0357,-2.031,-2.0302,-2.0295,-2.0291,-2.0364,-2.0364,-2.0406,-2.0407,-2.0407]}]]